AirNav   Air Wisconsin pilot careers
 
 1094 users online  

TLT Tuluksak Airport
Tuluksak, Alaska, USA

GOING TO TULUKSAK?


FAA INFORMATION EFFECTIVE 26 APRIL 2018

Location

FAA Identifier: TLT
Lat/Long: 61-05-15.8200N / 160-55-24.0700W
61-05.263667N / 160-55.401167W
61.0877278 / -160.9233528
(estimated)
Elevation: 35.8 ft. / 11 m (estimated)
Variation: 19E (1985)
Time zone: UTC -8 (UTC -9 during Standard Time)
Zip code: 99679

Airport Operations

Airport use: Open to the public
Activation date: 10/1959
Control tower: no
ARTCC: ANCHORAGE CENTER
FSS: KENAI FLIGHT SERVICE STATION [907-283-8469]
NOTAMs facility: ENA (NOTAM-D service available)
Attendance: UNATNDD
Wind indicator: lighted
Segmented circle: yes
Lights: ACTVT MIRL RY 15/33 - CTAF.
Beacon: white-green (lighted land airport)
ACTVT ROTG BCN - CTAF.

Airport Communications

CTAF: 122.9

Nearby radio navigation aids

VOR radial/distance  VOR name  Freq  Var
BETr041/31.9BETHEL VORTAC114.1014E

 
NDB name  Hdg/Dist  Freq  Var  ID
OSCARVILLE046/32.925111EOSE --- ... .

Airport Services

Airframe service: NONE
Powerplant service: NONE
Bottled oxygen: NONE
Bulk oxygen: NONE

Runway Information

Runway 15/33

Dimensions: 3300 x 60 ft. / 1006 x 18 m
Surface: gravel/dirt, in good condition
Runway edge lights: medium intensity
RUNWAY 15  RUNWAY 33
Latitude: 61-05.518500N61-05.009000N
Longitude: 160-55.590833W160-55.211667W
Elevation: 35.8 ft.35.8 ft.
Traffic pattern: leftleft
Markings: basic, in good conditionbasic, in good condition
Runway end identifier lights: yesyes
Touchdown point: yes, no lightsyes, no lights
Obstructions: 6 ft. brush, 50 ft. from runway, 100 ft. left and right of centerline, 8:1 slope to clear48 ft. trees, 1250 ft. from runway, 26:1 slope to clear

Airport Ownership and Management from official FAA records

Ownership: Publicly-owned
Owner: ALASKA DOT&PF CENTRAL REGION
PO BOX 196900
ANCHORAGE, AK 99519-6900
Phone 907-269-0747
Manager: LAWERENCE DAVIS
BOX 505
BETHEL, AK 99559
Phone (907) 543-2498

Airport Operational Statistics

Aircraft operations: avg 42/month *
100% air taxi
* for 12-month period ending 31 December 2016

Additional Remarks

RY COND NOT MONITORED; RCMD VISUAL INSPECTION PRIOR TO USE.
WX CAMERAS AVBL ON INTERNET AT HTTP://AVCAMS.FAA.GOV

Instrument Procedures

There are no published instrument procedures at TLT.

Some nearby airports with instrument procedures:

PFAK - Akiak Airport (14 nm SW)
PFKW - Kwethluk Airport (23 nm SW)
PALG - Kalskag Airport (32 nm NE)
PABE - Bethel Airport (32 nm SW)
PAPK - Napaskiak Airport (34 nm SW)
 
Loc | Ops | Rwys | IFR | FBO | Links
Com | Nav | Svcs | Stats | Notes

Crowley
 
Area around TLT (Tuluksak Airport)
 
Road maps at: MapQuest Bing Google
 
Aerial photo
WARNING: Photo may not be current or correct
Aerial photo of TLT (Tuluksak Airport)
Photo by Brian Kellogg

Do you have a better or more recent aerial photo of Tuluksak Airport that you would like to share? If so, please send us your photo.

 
Sectional chart

 
Airport distance calculator
Flying to Tuluksak Airport? Find the distance to fly.

From to TLT

Sunrise and sunset
Times for 24-May-2018
 Local
(UTC-8)
 Zulu
(UTC)
Morning civil twilight04:1312:13
Sunrise05:3713:37
Sunset23:4407:44
Evening civil twilight01:0809:08

Current date and time
Zulu (UTC)  24-May-2018 12:42:17
Local (UTC-8)  24-May-2018 04:42:17
 
METAR
PFKW 
23nm SW 
241156Z AUTO 12006KT 10SM SCT120 08/02 A2963 RMK AO2 SLP032 T00780022 10139 20072 51004
PABE 
31nm SW 
241153Z 12004KT 10SM CLR 07/02 A2964 RMK AO2 SLP036 T00670022 10128 20061 50002
PALG 
32nm NE 
241156Z AUTO 00000KT 10SM SCT055 OVC075 09/03 A2964 RMK AO2 SLP297 10140 20080 52003 PWINO FZRANO TSNO RVRNO
PANA 
39nm SW 
241056Z AUTO 07005KT 10SM CLR 07/04 A2962 RMK AO2 SLP030 T00720044
PARS 
43nm N 
241156Z AUTO 25003KT 10SM -RA BKN070 OVC080 08/03 A2965 RMK AO2 RAB30 SLP044 P0000 60000 T00830033 10144 20072 51006 $
PPIT 
45nm W 
241156Z AUTO 11006KT 10SM BKN120 09/06 A2962 RMK AO2 SLP030 T00940056 10133 20094 51004 TSNO
TAF
PABE 
31nm SW 
241128Z 2412/2512 VRB05KT P6SM FEW100 SCT250 FM242100 17008KT P6SM -SHRA SCT020 OVC050 FM250300 30008KT P6SM BKN050 OVC080 FM250800 VRB05KT P6SM SCT100 BKN150
NOTAMs
Click for the latest NOTAMs
NOTAMs are issued by the DoD/FAA and will open in a separate window not controlled by AirNav.

 

 
 

Would you like to see your business listed on this page?

 If your business provides an interesting product or service to pilots, flight crews, aircraft, or users of the Tuluksak Airport, you should consider listing it here.  To start the listing process, click on the button below
 
Add a business
 

Other Pages about Tuluksak Airport

Update a link
 
Copyright © AirNav, LLC. All rights reserved. Privacy Policy  Contact